Location: Kott?ru
(16.6209°N, 80.6208°E)
Time: 00:10:45
(UTC+00:00)

Delta 202 - Pass Details

Date: 18 September 2020
Orbit: 781 x 2713 km, 18.5° (Epoch: 26 October)

Event Time Altitude Azimuth Distance (km) Brightness Sun altitude
Exits shadow 22:26:34 67° 112° (ESE) 847 3.7 -29.3°
Drops below altitude 10° 22:31:12 10° 83° (E) 2,339 7.0 -28.2°
Sets 22:33:43 0° 82° (E) 3,334 8.1 -27.6°
